Regional Weather Roundup
Issued by NWS State College, PA

Home | Current Version | Previous Version | Text Only | Print | Product List | Glossary On
Versions: 1 2 3 4 5 6 7 8 9 10 11 12 13 14 15 16 17 18 19 20 21 22 23 24 25 26 27 28 29 30 31 32 33 34 35 36 37 38 39 40 41 42 43 44 45 46 47 48 49 50
109
ASUS41 KCTP 171510
RWRCTP

REGIONAL WEATHER ROUNDUP
NATIONAL WEATHER SERVICE STATE COLLEGE PA
1100 AM EDT TUE OCT 17 2017

Note: "fair" indicates few or no clouds below 12,000 feet with no
significant weather and/or obstructions to visibility.

* = STATION THAT DOES NOT REPORT PRECIPITATION /E.G. RAIN...SNOW...ETC/
    THUNDER OR FOG.

PAZ002>004-007>009-013>016-020>023-029>032-171600-
WESTERN PENNSYLVANIA

CITY           SKY/WX    TMP DP  RH WIND       PRES   REMARKS
ERIE           SUNNY     55  38  52 SW15G21   30.27F
MEADVILLE      SUNNY     50  38  63 SW9       30.31F
FRANKLIN*      SUNNY     50  36  58 SW9       30.33F
NEW CASTLE     FAIR      52  39  61 S7        30.34F
BEAVER COUNTY  SUNNY     54  37  54 S7        30.35S
BUTLER*        SUNNY     52  37  56 SW8       30.35F
PITTSBURGH INT NOT AVBL
PITTSBURGH     SUNNY     50  37  61 S6        30.36S
INDIANA*       SUNNY     50  41  71 SW7       30.38S
LATROBE        SUNNY     50  37  62 SW9       30.38S
WASHINGTON CO* SUNNY     53  38  56 VRB5      30.39S
$$

PAZ004>006-010>012-017>019-024>028-033>037-041-042-045-046-049>053-171600-
CENTRAL PENNSYLVANIA

CITY           SKY/WX    TMP DP  RH WIND       PRES   REMARKS
BRADFORD       SUNNY     47  34  60 SW12G17   30.30S
DUBOIS         SUNNY     47  33  58 SW10      30.32F
CLEARFIELD     NOT AVBL
JOHNSTOWN      SUNNY     47  32  56 SW5       30.34S
ALTOONA        SUNNY     50  37  61 SW6       30.35F
STATE COLLEGE  SUNNY     48  36  61 CALM      30.34F
WILLIAMSPORT   SUNNY     48  38  68 CALM      30.35F
SELINSGROVE    SUNNY     50  38  63 VRB3      30.38F
FT INDIANTOWN  SUNNY     50  35  54 SE3       30.36
CAPITAL CITY   SUNNY     53  31  42 VRB5      30.37F
HARRISBURG     SUNNY     52  35  52 W5        30.37F
YORK           SUNNY     51  35  54 NE3       30.38S
$$

PAZ038>040-043-044-047-048-054-055-060>062-067>071-171600-
EASTERN PENNSYLVANIA

CITY           SKY/WX    TMP DP  RH WIND       PRES   REMARKS
SCRANTON       SUNNY     46  34  62 NW3       30.34F
MOUNT POCONO   SUNNY     48  29  47 CALM      30.30F
ALLENTOWN      SUNNY     48  33  56 VRB5      30.36F
QUAKERTOWN*    SUNNY     48  34  57 W3        30.36F
READING        SUNNY     50  37  61 NW3       30.36F
LANCASTER      SUNNY     51  35  54 NW3       30.37F
COATESVILLE    SUNNY     48  34  57 CALM      30.38S
POTTSTOWN      SUNNY     48  35  60 NW5       30.38F
BLUE BELL      SUNNY     50  34  53 N3        30.38F
DOYLESTOWN     SUNNY     51  34  52 NE8       30.35F
WILLOW GROVE   NOT AVBL
NORTH PHILA    SUNNY     53  34  48 E3        30.38S
PHILADELPHIA   SUNNY     51  32  48 N8        30.37S
$$




USA.gov is the U.S. government's official web portal to all federal, state and local government web resources and services.